Wetterdaten: Samstag, 01.02.2014
Datum Zeit Temperatur Luftfeuchte Luftdruck Regen Wind Richtung Richtung Taupunkt Windchill Windben
01.02.2014 00:00 -3,6 C 90 % 1009,8 hPa 0,0 l/m 0,2 km/h (0 Bft) N-NO 22 -5,0 C -3,4 C 0,0 km/h (0 Bft)
01.02.2014 00:05 -3,7 C 90 % 1009,6 hPa 0,0 l/m 0,2 km/h (0 Bft) N-NO 22 -5,1 C -3,5 C 0,0 km/h (0 Bft)
01.02.2014 00:10 -3,8 C 90 % 1009,6 hPa 0,0 l/m 0,0 km/h (0 Bft) NO 45 -5,2 C -3,6 C 0,0 km/h (0 Bft)
01.02.2014 00:15 -3,6 C 90 % 1009,6 hPa 0,0 l/m 0,0 km/h (0 Bft) NO 45 -5,0 C -3,6 C 0,0 km/h (0 Bft)
01.02.2014 00:20 -4,0 C 90 % 1009,6 hPa 0,0 l/m 0,2 km/h (0 Bft) NO 45 -5,4 C -3,8 C 2,7 km/h (1 Bft)
01.02.2014 00:25 -3,3 C 90 % 1009,8 hPa 0,0 l/m 0,5 km/h (0 Bft) NO 45 -4,7 C -3,7 C 2,1 km/h (1 Bft)
01.02.2014 00:30 -3,5 C 90 % 1009,8 hPa 0,0 l/m 0,5 km/h (0 Bft) N-NW 337 -4,9 C -3,5 C 2,9 km/h (1 Bft)
01.02.2014 00:35 -4,1 C 90 % 1009,8 hPa 0,0 l/m 0,0 km/h (0 Bft) N-NW 337 -5,5 C -3,5 C 0,0 km/h (0 Bft)
01.02.2014 00:40 -4,2 C 90 % 1009,8 hPa 0,0 l/m 0,0 km/h (0 Bft) S-SW 202 -5,6 C -3,5 C 0,0 km/h (0 Bft)
01.02.2014 00:45 -4,2 C 90 % 1009,6 hPa 0,0 l/m 0,0 km/h (0 Bft) S-SW 202 -5,6 C -3,6 C 0,0 km/h (0 Bft)
01.02.2014 00:50 -3,6 C 90 % 1009,6 hPa 0,0 l/m 0,2 km/h (0 Bft) S-SW 202 -5,0 C -3,5 C 0,0 km/h (0 Bft)
01.02.2014 00:55 -4,0 C 90 % 1009,6 hPa 0,0 l/m 0,2 km/h (0 Bft) S-SW 202 -5,4 C -3,5 C 0,0 km/h (0 Bft)
01.02.2014 01:00 -3,8 C 90 % 1009,6 hPa 0,0 l/m 0,3 km/h (0 Bft) O-NO 67 -5,2 C -3,5 C 0,0 km/h (0 Bft)
01.02.2014 01:05 -3,7 C 90 % 1009,5 hPa 0,0 l/m 0,3 km/h (0 Bft) NO 45 -5,1 C -3,4 C 0,0 km/h (0 Bft)
01.02.2014 01:10 -3,8 C 90 % 1009,5 hPa 0,0 l/m 0,0 km/h (0 Bft) NO 45 -5,2 C -3,3 C 0,0 km/h (0 Bft)
01.02.2014 01:15 -3,9 C 90 % 1009,5 hPa 0,0 l/m 0,0 km/h (0 Bft) NO 45 -5,3 C -3,3 C 0,0 km/h (0 Bft)
01.02.2014 01:20 -3,9 C 90 % 1009,5 hPa 0,0 l/m 0,2 km/h (0 Bft) NO 45 -5,3 C -3,3 C 0,0 km/h (0 Bft)
01.02.2014 01:25 -3,3 C 90 % 1009,2 hPa 0,0 l/m 0,5 km/h (0 Bft) O-NO 67 -4,7 C -3,4 C 4,0 km/h (1 Bft)
01.02.2014 01:30 -2,8 C 91 % 1009,2 hPa 0,0 l/m 1,6 km/h (1 Bft) NO 45 -4,1 C -2,8 C 6,4 km/h (2 Bft)
01.02.2014 01:35 -3,6 C 90 % 1009,2 hPa 0,0 l/m 1,6 km/h (1 Bft) NO 45 -5,0 C -3,0 C 0,0 km/h (0 Bft)
01.02.2014 01:40 -3,6 C 91 % 1009,2 hPa 0,0 l/m 0,2 km/h (0 Bft) NO 45 -4,8 C -3,5 C 0,0 km/h (0 Bft)
01.02.2014 01:45 -3,9 C 90 % 1009,0 hPa 0,0 l/m 0,2 km/h (0 Bft) O-SO 112 -5,3 C -3,5 C 0,0 km/h (0 Bft)
01.02.2014 01:50 -3,7 C 90 % 1009,0 hPa 0,0 l/m 0,0 km/h (0 Bft) NO 45 -5,1 C -3,7 C 2,1 km/h (1 Bft)
01.02.2014 01:55 -3,4 C 91 % 1009,0 hPa 0,0 l/m 0,3 km/h (0 Bft) NO 45 -4,7 C -3,6 C 0,0 km/h (0 Bft)
01.02.2014 02:00 -4,0 C 90 % 1009,0 hPa 0,0 l/m 0,3 km/h (0 Bft) O-SO 112 -5,4 C -3,5 C 0,0 km/h (0 Bft)
01.02.2014 02:05 -4,2 C 90 % 1009,1 hPa 0,0 l/m 0,0 km/h (0 Bft) O-SO 112 -5,6 C -3,6 C 0,0 km/h (0 Bft)
01.02.2014 02:10 -4,3 C 90 % 1009,1 hPa 0,0 l/m 0,0 km/h (0 Bft) O-SO 112 -5,7 C -3,9 C 0,0 km/h (0 Bft)
01.02.2014 02:15 -4,6 C 90 % 1009,1 hPa 0,0 l/m 0,0 km/h (0 Bft) O-SO 112 -6,0 C -4,0 C 0,0 km/h (0 Bft)
01.02.2014 02:20 -3,7 C 90 % 1009,1 hPa 0,0 l/m 0,5 km/h (0 Bft) NO 45 -5,1 C -4,1 C 0,0 km/h (0 Bft)
01.02.2014 02:24 -4,1 C 90 % 1009,1 hPa 0,0 l/m 0,6 km/h (0 Bft) N-NW 337 -5,5 C -3,9 C 0,0 km/h (0 Bft)
01.02.2014 02:25 -4,1 C 90 % 1009,1 hPa 0,0 l/m 0,6 km/h (0 Bft) N-NW 337 -5,5 C -3,9 C 0,0 km/h (0 Bft)
01.02.2014 02:30 -3,9 C 91 % 1009,1 hPa 0,0 l/m 0,8 km/h (0 Bft) N 360 -5,1 C -3,9 C 0,0 km/h (0 Bft)
01.02.2014 02:35 -4,1 C 91 % 1009,1 hPa 0,0 l/m 1,0 km/h (0 Bft) S-SW 202 -5,3 C -3,8 C 0,0 km/h (0 Bft)
01.02.2014 02:40 -3,9 C 91 % 1009,1 hPa 0,0 l/m 1,3 km/h (1 Bft) O-NO 67 -5,1 C -3,9 C 4,5 km/h (1 Bft)
01.02.2014 02:45 -3,3 C 91 % 1008,9 hPa 0,0 l/m 2,1 km/h (1 Bft) O 90 -4,6 C -3,6 C 0,0 km/h (0 Bft)
01.02.2014 02:50 -4,0 C 91 % 1008,9 hPa 0,0 l/m 1,4 km/h (1 Bft) S-SO 157 -5,2 C -3,6 C 0,0 km/h (0 Bft)
01.02.2014 02:55 -4,1 C 91 % 1008,9 hPa 0,0 l/m 0,2 km/h (0 Bft) NO 45 -5,3 C -3,7 C 0,0 km/h (0 Bft)
01.02.2014 03:00 -4,3 C 91 % 1008,9 hPa 0,0 l/m 0,2 km/h (0 Bft) O-SO 112 -5,5 C -3,8 C 0,0 km/h (0 Bft)
01.02.2014 03:05 -4,3 C 91 % 1008,6 hPa 0,0 l/m 0,2 km/h (0 Bft) SO 135 -5,5 C -4,0 C 0,0 km/h (0 Bft)
01.02.2014 03:10 -4,4 C 90 % 1008,6 hPa 0,0 l/m 0,0 km/h (0 Bft) N-NO 22 -5,8 C -4,1 C 0,0 km/h (0 Bft)
01.02.2014 03:15 -4,2 C 90 % 1008,6 hPa 0,0 l/m 0,0 km/h (0 Bft) N-NO 22 -5,6 C -4,1 C 0,0 km/h (0 Bft)
01.02.2014 03:20 -4,3 C 90 % 1008,6 hPa 0,0 l/m 0,0 km/h (0 Bft) N-NO 22 -5,7 C -4,3 C 0,0 km/h (0 Bft)
01.02.2014 03:25 -4,0 C 91 % 1008,4 hPa 0,0 l/m 0,5 km/h (0 Bft) N 360 -5,2 C -4,2 C 0,0 km/h (0 Bft)
01.02.2014 03:30 -4,0 C 91 % 1008,4 hPa 0,0 l/m 0,5 km/h (0 Bft) N-NO 22 -5,2 C -3,9 C 0,0 km/h (0 Bft)
01.02.2014 03:35 -3,7 C 91 % 1008,4 hPa 0,0 l/m 0,0 km/h (0 Bft) N 360 -4,9 C -3,8 C 0,0 km/h (0 Bft)
01.02.2014 03:40 -3,8 C 91 % 1008,4 hPa 0,0 l/m 0,0 km/h (0 Bft) N-NO 22 -5,0 C -3,7 C 0,0 km/h (0 Bft)
01.02.2014 03:45 -3,8 C 91 % 1008,4 hPa 0,0 l/m 0,0 km/h (0 Bft) N-NO 22 -5,0 C -3,7 C 0,0 km/h (0 Bft)
01.02.2014 03:50 -4,2 C 91 % 1008,4 hPa 0,0 l/m 0,0 km/h (0 Bft) N-NO 22 -5,4 C -3,7 C 0,0 km/h (0 Bft)
01.02.2014 03:55 -4,3 C 91 % 1008,4 hPa 0,0 l/m 0,0 km/h (0 Bft) N-NO 22 -5,5 C -3,7 C 0,0 km/h (0 Bft)
01.02.2014 04:00 -4,0 C 91 % 1008,4 hPa 0,0 l/m 0,0 km/h (0 Bft) N 360 -5,2 C -3,7 C 0,0 km/h (0 Bft)
01.02.2014 04:05 -4,2 C 91 % 1008,2 hPa 0,0 l/m 0,0 km/h (0 Bft) N-NO 22 -5,4 C -3,7 C 0,0 km/h (0 Bft)
01.02.2014 04:10 -4,3 C 91 % 1008,2 hPa 0,0 l/m 0,0 km/h (0 Bft) N 360 -5,5 C -3,8 C 0,0 km/h (0 Bft)
01.02.2014 04:15 -3,7 C 91 % 1008,2 hPa 0,0 l/m 0,6 km/h (0 Bft) N 360 -4,9 C -3,8 C 3,2 km/h (1 Bft)
01.02.2014 04:20 -4,2 C 91 % 1008,2 hPa 0,0 l/m 0,6 km/h (0 Bft) N 360 -5,4 C -3,6 C 0,0 km/h (0 Bft)
01.02.2014 04:25 -4,2 C 91 % 1008,0 hPa 0,0 l/m 0,3 km/h (0 Bft) N 360 -5,4 C -3,7 C 0,0 km/h (0 Bft)
01.02.2014 04:30 -4,1 C 91 % 1008,0 hPa 0,0 l/m 0,0 km/h (0 Bft) N-NO 22 -5,3 C -3,7 C 0,0 km/h (0 Bft)
01.02.2014 04:35 -3,9 C 91 % 1008,0 hPa 0,0 l/m 0,0 km/h (0 Bft) N-NO 22 -5,1 C -3,7 C 0,0 km/h (0 Bft)
01.02.2014 04:40 -3,7 C 91 % 1008,0 hPa 0,0 l/m 0,0 km/h (0 Bft) N-NO 22 -4,9 C -3,6 C 0,0 km/h (0 Bft)
01.02.2014 04:45 -3,4 C 91 % 1007,8 hPa 0,0 l/m 0,0 km/h (0 Bft) N 360 -4,7 C -3,6 C 0,0 km/h (0 Bft)
01.02.2014 04:50 -4,0 C 91 % 1007,8 hPa 0,0 l/m 0,0 km/h (0 Bft) N 360 -5,2 C -3,6 C 0,0 km/h (0 Bft)
01.02.2014 04:55 -4,0 C 91 % 1007,8 hPa 0,0 l/m 0,0 km/h (0 Bft) N 360 -5,2 C -3,7 C 0,0 km/h (0 Bft)
01.02.2014 05:00 -4,3 C 91 % 1007,8 hPa 0,0 l/m 0,0 km/h (0 Bft) N-NW 337 -5,5 C -3,8 C 0,0 km/h (0 Bft)
01.02.2014 05:05 -4,3 C 91 % 1007,6 hPa 0,0 l/m 0,0 km/h (0 Bft) NO 45 -5,5 C -4,0 C 0,0 km/h (0 Bft)
01.02.2014 05:10 -4,0 C 91 % 1007,6 hPa 0,0 l/m 0,0 km/h (0 Bft) N-NO 22 -5,2 C -4,0 C 0,0 km/h (0 Bft)
01.02.2014 05:15 -4,1 C 91 % 1007,6 hPa 0,0 l/m 0,0 km/h (0 Bft) N-NO 22 -5,3 C -3,9 C 0,0 km/h (0 Bft)
01.02.2014 05:20 -4,4 C 91 % 1007,6 hPa 0,0 l/m 0,0 km/h (0 Bft) N-NO 22 -5,6 C -4,0 C 0,0 km/h (0 Bft)
01.02.2014 05:25 -4,3 C 91 % 1007,6 hPa 0,0 l/m 0,0 km/h (0 Bft) N-NO 22 -5,5 C -4,1 C 0,0 km/h (0 Bft)
01.02.2014 05:30 -4,4 C 91 % 1007,6 hPa 0,0 l/m 0,0 km/h (0 Bft) NO 45 -5,6 C -3,9 C 0,0 km/h (0 Bft)
01.02.2014 05:35 -4,2 C 91 % 1007,6 hPa 0,0 l/m 0,0 km/h (0 Bft) N 360 -5,4 C -3,8 C 0,0 km/h (0 Bft)
01.02.2014 05:40 -4,6 C 90 % 1007,6 hPa 0,0 l/m 0,0 km/h (0 Bft) N 360 -6,0 C -3,9 C 0,0 km/h (0 Bft)
01.02.2014 05:45 -4,0 C 91 % 1007,5 hPa 0,0 l/m 0,0 km/h (0 Bft) N-NO 22 -5,2 C -4,0 C 0,0 km/h (0 Bft)
01.02.2014 05:50 -4,4 C 91 % 1007,5 hPa 0,0 l/m 0,0 km/h (0 Bft) N 360 -5,6 C -3,9 C 0,0 km/h (0 Bft)
01.02.2014 05:55 -4,3 C 91 % 1007,5 hPa 0,0 l/m 0,0 km/h (0 Bft) NO 45 -5,5 C -4,0 C 0,0 km/h (0 Bft)
01.02.2014 06:00 -4,2 C 91 % 1007,5 hPa 0,0 l/m 0,2 km/h (0 Bft) O-NO 67 -5,4 C -3,9 C 0,0 km/h (0 Bft)
01.02.2014 06:05 -4,4 C 91 % 1007,5 hPa 0,0 l/m 0,2 km/h (0 Bft) N 360 -5,6 C -3,9 C 0,0 km/h (0 Bft)
01.02.2014 06:10 -4,2 C 91 % 1007,5 hPa 0,0 l/m 0,0 km/h (0 Bft) N 360 -5,4 C -4,1 C 0,0 km/h (0 Bft)
01.02.2014 06:15 -4,6 C 90 % 1007,5 hPa 0,0 l/m 0,0 km/h (0 Bft) N 360 -6,0 C -4,2 C 0,0 km/h (0 Bft)
01.02.2014 06:20 -4,5 C 90 % 1007,5 hPa 0,0 l/m 0,2 km/h (0 Bft) N 360 -5,9 C -4,2 C 0,0 km/h (0 Bft)
01.02.2014 06:25 -4,6 C 90 % 1007,4 hPa 0,0 l/m 0,2 km/h (0 Bft) N 360 -6,0 C -4,2 C 0,0 km/h (0 Bft)
01.02.2014 06:30 -4,1 C 91 % 1007,4 hPa 0,0 l/m 0,0 km/h (0 Bft) NO 45 -5,3 C -4,2 C 0,0 km/h (0 Bft)
01.02.2014 06:35 -4,4 C 91 % 1007,4 hPa 0,0 l/m 0,0 km/h (0 Bft) N-NW 337 -5,6 C -4,1 C 0,0 km/h (0 Bft)
01.02.2014 06:40 -4,2 C 91 % 1007,4 hPa 0,0 l/m 0,5 km/h (0 Bft) N-NW 337 -5,4 C -4,1 C 0,0 km/h (0 Bft)
01.02.2014 06:45 -4,2 C 91 % 1007,1 hPa 0,0 l/m 0,6 km/h (0 Bft) NO 45 -5,4 C -4,2 C 3,4 km/h (1 Bft)
01.02.2014 06:50 -4,4 C 91 % 1007,1 hPa 0,0 l/m 0,3 km/h (0 Bft) N 360 -5,6 C -4,2 C 0,0 km/h (0 Bft)
01.02.2014 06:55 -4,4 C 91 % 1007,1 hPa 0,0 l/m 0,3 km/h (0 Bft) N-NO 22 -5,6 C -4,3 C 0,0 km/h (0 Bft)
01.02.2014 07:00 -4,4 C 90 % 1007,1 hPa 0,0 l/m 0,0 km/h (0 Bft) N-NW 337 -5,8 C -4,2 C 0,0 km/h (0 Bft)
01.02.2014 07:05 -4,5 C 90 % 1006,6 hPa 0,0 l/m 0,0 km/h (0 Bft) N-NW 337 -5,9 C -4,2 C 0,0 km/h (0 Bft)
01.02.2014 07:10 -4,0 C 91 % 1006,6 hPa 0,0 l/m 0,0 km/h (0 Bft) N-NW 337 -5,2 C -4,2 C 0,0 km/h (0 Bft)
01.02.2014 07:15 -4,3 C 91 % 1006,6 hPa 0,0 l/m 0,0 km/h (0 Bft) NO 45 -5,5 C -4,1 C 0,0 km/h (0 Bft)
01.02.2014 07:20 -4,6 C 90 % 1006,6 hPa 0,0 l/m 0,2 km/h (0 Bft) NO 45 -6,0 C -4,3 C 0,0 km/h (0 Bft)
01.02.2014 07:25 -4,7 C 90 % 1006,2 hPa 0,0 l/m 0,2 km/h (0 Bft) NO 45 -6,1 C -4,4 C 0,0 km/h (0 Bft)
01.02.2014 07:30 -4,8 C 90 % 1006,2 hPa 0,0 l/m 0,3 km/h (0 Bft) S-SW 202 -6,2 C -4,2 C 0,0 km/h (0 Bft)
01.02.2014 07:35 -4,9 C 90 % 1006,2 hPa 0,0 l/m 0,3 km/h (0 Bft) S-SW 202 -6,3 C -4,3 C 0,0 km/h (0 Bft)
01.02.2014 07:40 -3,9 C 91 % 1006,2 hPa 0,0 l/m 0,6 km/h (0 Bft) N-NW 337 -5,1 C -4,3 C 0,0 km/h (0 Bft)
01.02.2014 07:45 -4,6 C 90 % 1006,2 hPa 0,0 l/m 0,6 km/h (0 Bft) N-NW 337 -6,0 C -4,2 C 0,0 km/h (0 Bft)
01.02.2014 07:50 -4,7 C 90 % 1006,2 hPa 0,0 l/m 0,2 km/h (0 Bft) W 270 -6,1 C -4,4 C 0,0 km/h (0 Bft)
01.02.2014 07:55 -4,0 C 91 % 1006,2 hPa 0,0 l/m 1,1 km/h (1 Bft) N-NO 22 -5,2 C -4,4 C 3,1 km/h (1 Bft)
01.02.2014 08:00 -3,9 C 91 % 1006,2 hPa 0,0 l/m 1,8 km/h (1 Bft) SO 135 -5,1 C -3,9 C 2,7 km/h (1 Bft)
01.02.2014 08:05 -4,2 C 91 % 1006,1 hPa 0,0 l/m 1,9 km/h (1 Bft) N-NO 22 -5,4 C -3,8 C 2,7 km/h (1 Bft)
01.02.2014 08:10 -3,9 C 91 % 1006,1 hPa 0,0 l/m 1,3 km/h (1 Bft) SO 135 -5,1 C -3,8 C 2,7 km/h (1 Bft)
01.02.2014 08:15 -3,1 C 92 % 1006,1 hPa 0,0 l/m 1,0 km/h (0 Bft) O 90 -4,2 C -3,7 C 2,7 km/h (1 Bft)
01.02.2014 08:18 -3,7 C 92 % 1006,1 hPa 0,0 l/m 1,3 km/h (1 Bft) NO 45 -4,8 C -3,6 C 0,0 km/h (0 Bft)
01.02.2014 08:20 -3,7 C 92 % 1006,1 hPa 0,0 l/m 1,3 km/h (1 Bft) NO 45 -4,8 C -3,6 C 0,0 km/h (0 Bft)
01.02.2014 08:25 -4,1 C 91 % 1005,9 hPa 0,0 l/m 0,8 km/h (0 Bft) NO 45 -5,3 C -3,8 C 0,0 km/h (0 Bft)
01.02.2014 08:30 -4,1 C 91 % 1005,9 hPa 0,0 l/m 0,2 km/h (0 Bft) NO 45 -5,3 C -3,8 C 0,0 km/h (0 Bft)
01.02.2014 08:35 -3,9 C 91 % 1005,9 hPa 0,0 l/m 0,2 km/h (0 Bft) NO 45 -5,1 C -3,8 C 0,0 km/h (0 Bft)
01.02.2014 08:40 -3,8 C 91 % 1005,9 hPa 0,0 l/m 0,3 km/h (0 Bft) NO 45 -5,0 C -3,7 C 2,9 km/h (1 Bft)
01.02.2014 08:45 -3,4 C 92 % 1005,9 hPa 0,0 l/m 0,8 km/h (0 Bft) N 360 -4,5 C -3,6 C 0,0 km/h (0 Bft)
01.02.2014 08:50 -3,1 C 92 % 1005,9 hPa 0,0 l/m 1,6 km/h (1 Bft) NO 45 -4,2 C -3,5 C 2,4 km/h (1 Bft)
01.02.2014 08:55 -3,2 C 92 % 1005,9 hPa 0,0 l/m 1,0 km/h (0 Bft) N 360 -4,3 C -3,3 C 0,0 km/h (0 Bft)
01.02.2014 09:00 -3,2 C 92 % 1005,9 hPa 0,0 l/m 0,6 km/h (0 Bft) S 180 -4,3 C -3,0 C 0,0 km/h (0 Bft)
01.02.2014 09:05 -3,3 C 92 % 1005,9 hPa 0,0 l/m 0,5 km/h (0 Bft) S 180 -4,4 C -2,8 C 0,0 km/h (0 Bft)
01.02.2014 09:10 -3,1 C 92 % 1005,9 hPa 0,0 l/m 0,5 km/h (0 Bft) O-SO 112 -4,2 C -2,7 C 3,4 km/h (1 Bft)
01.02.2014 09:15 -2,7 C 92 % 1005,9 hPa 0,0 l/m 1,3 km/h (1 Bft) N 360 -3,8 C -2,6 C 2,1 km/h (1 Bft)
01.02.2014 09:20 -2,5 C 92 % 1005,9 hPa 0,0 l/m 1,0 km/h (0 Bft) N 360 -3,6 C -2,3 C 0,0 km/h (0 Bft)
01.02.2014 09:25 -2,7 C 92 % 1005,7 hPa 0,0 l/m 0,2 km/h (0 Bft) N 360 -3,8 C -2,2 C 0,0 km/h (0 Bft)
01.02.2014 09:30 -2,3 C 92 % 1005,7 hPa 0,0 l/m 0,0 km/h (0 Bft) NO 45 -3,4 C -2,1 C 1,6 km/h (1 Bft)
01.02.2014 09:35 -2,1 C 92 % 1005,7 hPa 0,0 l/m 0,5 km/h (0 Bft) NO 45 -3,2 C -2,0 C 3,5 km/h (1 Bft)
01.02.2014 09:40 -1,9 C 92 % 1005,7 hPa 0,0 l/m 1,1 km/h (1 Bft) N 360 -3,0 C -1,6 C 1,8 km/h (1 Bft)
01.02.2014 09:45 -1,8 C 92 % 1005,9 hPa 0,0 l/m 1,4 km/h (1 Bft) O 90 -2,9 C -1,6 C 1,8 km/h (1 Bft)
01.02.2014 09:50 -1,6 C 93 % 1005,9 hPa 0,0 l/m 0,8 km/h (0 Bft) O-SO 112 -2,6 C -1,4 C 0,0 km/h (0 Bft)
01.02.2014 09:55 -1,5 C 93 % 1005,9 hPa 0,0 l/m 1,0 km/h (0 Bft) N 360 -2,5 C -1,3 C 3,4 km/h (1 Bft)
01.02.2014 10:00 -1,4 C 93 % 1005,9 hPa 0,0 l/m 1,3 km/h (1 Bft) N-NO 22 -2,4 C -1,0 C 2,9 km/h (1 Bft)
01.02.2014 10:05 -1,0 C 93 % 1005,8 hPa 0,0 l/m 1,8 km/h (1 Bft) O-SO 112 -2,0 C -0,7 C 0,0 km/h (0 Bft)
01.02.2014 10:10 -0,9 C 93 % 1005,8 hPa 0,0 l/m 1,3 km/h (1 Bft) NO 45 -1,9 C -0,3 C 0,0 km/h (0 Bft)
01.02.2014 10:15 -0,5 C 94 % 1005,8 hPa 0,0 l/m 0,8 km/h (0 Bft) O-NO 67 -1,3 C 0,1 C 1,6 km/h (1 Bft)
01.02.2014 10:20 0,0 C 94 % 1005,8 hPa 0,0 l/m 2,7 km/h (1 Bft) O-SO 112 -0,8 C 0,8 C 8,0 km/h (2 Bft)
01.02.2014 10:25 0,1 C 94 % 1005,6 hPa 0,0 l/m 4,5 km/h (1 Bft) O-SO 112 -0,7 C 0,2 C 7,2 km/h (2 Bft)
01.02.2014 10:30 0,3 C 94 % 1005,6 hPa 0,0 l/m 4,8 km/h (1 Bft) NO 45 -0,5 C 1,8 C 8,2 km/h (2 Bft)
01.02.2014 10:35 1,0 C 94 % 1005,6 hPa 0,0 l/m 4,0 km/h (1 Bft) S-SO 157 0,1 C 4,1 C 2,3 km/h (1 Bft)
01.02.2014 10:40 1,0 C 94 % 1005,6 hPa 0,0 l/m 2,9 km/h (1 Bft) NO 45 0,1 C 7,0 C 5,3 km/h (1 Bft)
01.02.2014 10:45 1,4 C 95 % 1005,9 hPa 0,0 l/m 1,9 km/h (1 Bft) SO 135 0,7 C 7,9 C 0,0 km/h (0 Bft)
01.02.2014 10:50 1,6 C 95 % 1005,9 hPa 0,0 l/m 1,8 km/h (1 Bft) NO 45 0,9 C 8,8 C 2,1 km/h (1 Bft)
01.02.2014 10:55 1,8 C 95 % 1005,9 hPa 0,0 l/m 1,1 km/h (1 Bft) S 180 1,1 C 9,5 C 0,0 km/h (0 Bft)
01.02.2014 11:00 1,9 C 95 % 1005,9 hPa 0,0 l/m 1,1 km/h (1 Bft) O-SO 112 1,2 C 10,8 C 0,0 km/h (0 Bft)
01.02.2014 11:05 2,1 C 95 % 1005,9 hPa 0,0 l/m 1,8 km/h (1 Bft) SO 135 1,4 C 10,9 C 2,3 km/h (1 Bft)
01.02.2014 11:10 2,3 C 95 % 1005,9 hPa 0,0 l/m 2,3 km/h (1 Bft) SO 135 1,6 C 11,3 C 2,6 km/h (1 Bft)
01.02.2014 11:15 2,3 C 95 % 1005,9 hPa 0,0 l/m 1,3 km/h (1 Bft) SO 135 1,6 C 11,7 C 0,0 km/h (0 Bft)
01.02.2014 11:20 2,5 C 94 % 1005,9 hPa 0,0 l/m 0,5 km/h (0 Bft) SO 135 1,6 C 12,6 C 2,6 km/h (1 Bft)
01.02.2014 11:25 2,8 C 94 % 1006,1 hPa 0,0 l/m 0,3 km/h (0 Bft) O-SO 112 1,9 C 13,0 C 0,0 km/h (0 Bft)
01.02.2014 11:30 3,2 C 92 % 1006,1 hPa 0,0 l/m 0,2 km/h (0 Bft) O-SO 112 2,0 C 13,2 C 0,0 km/h (0 Bft)
01.02.2014 11:35 3,4 C 92 % 1006,1 hPa 0,0 l/m 0,2 km/h (0 Bft) O-SO 112 2,2 C 13,5 C 2,6 km/h (1 Bft)
01.02.2014 11:40 3,7 C 92 % 1006,1 hPa 0,0 l/m 0,6 km/h (0 Bft) O-SO 112 2,5 C 13,5 C 0,0 km/h (0 Bft)
01.02.2014 11:45 3,6 C 91 % 1006,1 hPa 0,0 l/m 1,1 km/h (1 Bft) O-SO 112 2,3 C 13,8 C 0,0 km/h (0 Bft)
01.02.2014 11:50 4,1 C 91 % 1006,1 hPa 0,0 l/m 1,1 km/h (1 Bft) O 90 2,8 C 14,9 C 6,1 km/h (2 Bft)
01.02.2014 11:55 4,4 C 90 % 1006,1 hPa 0,0 l/m 1,4 km/h (1 Bft) O 90 2,9 C 14,3 C 0,0 km/h (0 Bft)
01.02.2014 12:00 4,5 C 88 % 1006,1 hPa 0,0 l/m 2,1 km/h (1 Bft) W-NW 292 2,7 C 14,6 C 0,0 km/h (0 Bft)
01.02.2014 12:05 4,8 C 87 % 1006,1 hPa 0,0 l/m 2,1 km/h (1 Bft) O-SO 112 2,8 C 14,8 C 2,4 km/h (1 Bft)
01.02.2014 12:10 4,7 C 87 % 1006,1 hPa 0,0 l/m 1,4 km/h (1 Bft) S 180 2,7 C 14,9 C 2,6 km/h (1 Bft)
01.02.2014 12:15 4,9 C 86 % 1006,1 hPa 0,0 l/m 1,0 km/h (0 Bft) NO 45 2,8 C 15,4 C 2,3 km/h (1 Bft)
01.02.2014 12:20 4,9 C 86 % 1006,1 hPa 0,0 l/m 0,8 km/h (0 Bft) NO 45 2,8 C 15,4 C 0,0 km/h (0 Bft)
01.02.2014 12:25 5,1 C 86 % 1006,3 hPa 0,0 l/m 1,0 km/h (0 Bft) O-NO 67 3,0 C 15,7 C 2,6 km/h (1 Bft)
01.02.2014 12:30 5,3 C 85 % 1006,3 hPa 0,0 l/m 1,3 km/h (1 Bft) NO 45 3,0 C 15,7 C 3,4 km/h (1 Bft)
01.02.2014 12:35 5,4 C 85 % 1006,3 hPa 0,0 l/m 1,4 km/h (1 Bft) NO 45 3,1 C 15,5 C 0,0 km/h (0 Bft)
01.02.2014 12:40 5,7 C 86 % 1006,3 hPa 0,0 l/m 1,9 km/h (1 Bft) O-NO 67 3,5 C 15,6 C 2,6 km/h (1 Bft)
01.02.2014 12:45 5,7 C 84 % 1006,4 hPa 0,0 l/m 1,8 km/h (1 Bft) N 360 3,2 C 15,6 C 3,2 km/h (1 Bft)
01.02.2014 12:50 5,5 C 84 % 1006,4 hPa 0,0 l/m 1,9 km/h (1 Bft) N 360 3,0 C 15,7 C 4,7 km/h (1 Bft)
01.02.2014 12:55 5,6 C 82 % 1006,4 hPa 0,0 l/m 2,7 km/h (1 Bft) NW 315 2,8 C 15,3 C 3,1 km/h (1 Bft)
01.02.2014 13:00 5,8 C 83 % 1006,4 hPa 0,0 l/m 1,8 km/h (1 Bft) N-NW 337 3,1 C 15,7 C 0,0 km/h (0 Bft)
01.02.2014 13:05 5,8 C 84 % 1006,1 hPa 0,0 l/m 0,2 km/h (0 Bft) N-NO 22 3,3 C 16,6 C 0,0 km/h (0 Bft)
01.02.2014 13:10 5,9 C 86 % 1006,1 hPa 0,0 l/m 0,2 km/h (0 Bft) W-NW 292 3,7 C 17,7 C 2,3 km/h (1 Bft)
01.02.2014 13:15 6,2 C 85 % 1006,1 hPa 0,0 l/m 0,6 km/h (0 Bft) S 180 3,9 C 17,8 C 2,1 km/h (1 Bft)
01.02.2014 13:20 6,5 C 85 % 1006,1 hPa 0,0 l/m 1,3 km/h (1 Bft) S-SO 157 4,2 C 17,8 C 2,4 km/h (1 Bft)
01.02.2014 13:25 6,7 C 83 % 1006,1 hPa 0,0 l/m 1,9 km/h (1 Bft) S-SO 157 4,0 C 17,5 C 3,1 km/h (1 Bft)
01.02.2014 13:30 6,8 C 84 % 1006,1 hPa 0,0 l/m 2,6 km/h (1 Bft) O-SO 112 4,3 C 17,3 C 1,6 km/h (1 Bft)
01.02.2014 13:35 6,9 C 82 % 1006,1 hPa 0,0 l/m 2,3 km/h (1 Bft) S-SW 202 4,0 C 17,2 C 4,5 km/h (1 Bft)
01.02.2014 13:40 7,0 C 81 % 1006,1 hPa 0,0 l/m 3,2 km/h (1 Bft) W-SW 247 4,0 C 16,6 C 3,1 km/h (1 Bft)
01.02.2014 13:45 7,2 C 82 % 1006,4 hPa 0,0 l/m 4,3 km/h (1 Bft) S 180 4,3 C 16,2 C 6,9 km/h (2 Bft)
01.02.2014 13:50 7,6 C 77 % 1006,4 hPa 0,0 l/m 4,8 km/h (1 Bft) SW 225 3,8 C 15,7 C 5,0 km/h (1 Bft)
01.02.2014 13:55 7,4 C 76 % 1006,4 hPa 0,0 l/m 5,0 km/h (1 Bft) SW 225 3,5 C 15,5 C 7,1 km/h (2 Bft)
01.02.2014 14:00 7,2 C 74 % 1006,4 hPa 0,0 l/m 5,1 km/h (1 Bft) S-SO 157 2,9 C 14,9 C 8,9 km/h (2 Bft)
01.02.2014 14:05 8,2 C 66 % 1006,8 hPa 0,0 l/m 6,6 km/h (2 Bft) S-SO 157 2,2 C 14,1 C 8,0 km/h (2 Bft)
01.02.2014 14:10 9,1 C 64 % 1006,8 hPa 0,0 l/m 6,6 km/h (2 Bft) S-SW 202 2,7 C 13,6 C 10,6 km/h (2 Bft)
01.02.2014 14:15 9,5 C 59 % 1006,8 hPa 0,0 l/m 6,3 km/h (2 Bft) S-SO 157 1,9 C 13,7 C 6,8 km/h (2 Bft)
01.02.2014 14:18 9,8 C 57 % 1006,8 hPa 0,0 l/m 6,3 km/h (2 Bft) S 180 1,7 C 13,4 C 6,8 km/h (2 Bft)
01.02.2014 14:20 9,8 C 57 % 1006,8 hPa 0,0 l/m 6,3 km/h (2 Bft) S 180 1,7 C 13,4 C 6,8 km/h (2 Bft)
01.02.2014 14:25 10,0 C 53 % 1006,9 hPa 0,0 l/m 6,6 km/h (2 Bft) S-SO 157 0,9 C 13,1 C 7,2 km/h (2 Bft)
01.02.2014 14:30 10,2 C 51 % 1006,9 hPa 0,0 l/m 6,6 km/h (2 Bft) S 180 0,5 C 13,1 C 11,1 km/h (2 Bft)
01.02.2014 14:35 10,5 C 52 % 1006,9 hPa 0,0 l/m 5,8 km/h (2 Bft) S-SO 157 1,1 C 13,6 C 7,7 km/h (2 Bft)
01.02.2014 14:40 10,4 C 48 % 1006,9 hPa 0,0 l/m 6,0 km/h (2 Bft) S 180 -0,1 C 13,5 C 11,9 km/h (2 Bft)
01.02.2014 14:45 10,5 C 49 % 1006,9 hPa 0,0 l/m 5,8 km/h (2 Bft) S-SO 157 0,2 C 13,8 C 6,8 km/h (2 Bft)
01.02.2014 14:50 10,0 C 49 % 1006,9 hPa 0,0 l/m 5,3 km/h (1 Bft) S 180 -0,2 C 14,1 C 7,4 km/h (2 Bft)
01.02.2014 14:55 9,9 C 50 % 1006,9 hPa 0,0 l/m 5,8 km/h (2 Bft) S-SO 157 -0,0 C 13,9 C 4,2 km/h (1 Bft)
01.02.2014 15:00 10,1 C 49 % 1006,9 hPa 0,0 l/m 5,6 km/h (1 Bft) S-SO 157 -0,1 C 13,6 C 5,8 km/h (2 Bft)
01.02.2014 15:05 9,8 C 51 % 1007,0 hPa 0,0 l/m 3,5 km/h (1 Bft) S-SO 157 0,2 C 12,9 C 1,8 km/h (1 Bft)
01.02.2014 15:10 9,0 C 51 % 1007,0 hPa 0,0 l/m 1,8 km/h (1 Bft) O-NO 67 -0,6 C 11,7 C 2,6 km/h (1 Bft)
01.02.2014 15:15 8,8 C 52 % 1007,0 hPa 0,0 l/m 1,9 km/h (1 Bft) O-SO 112 -0,5 C 11,0 C 3,2 km/h (1 Bft)
01.02.2014 15:20 8,4 C 53 % 1007,0 hPa 0,0 l/m 2,3 km/h (1 Bft) O 90 -0,6 C 10,2 C 3,5 km/h (1 Bft)
01.02.2014 15:25 8,3 C 54 % 1007,0 hPa 0,0 l/m 2,3 km/h (1 Bft) O-NO 67 -0,5 C 9,7 C 0,0 km/h (0 Bft)
01.02.2014 15:30 8,0 C 55 % 1007,0 hPa 0,0 l/m 1,4 km/h (1 Bft) O-SO 112 -0,5 C 9,2 C 0,0 km/h (0 Bft)
01.02.2014 15:35 7,8 C 55 % 1007,0 hPa 0,0 l/m 0,6 km/h (0 Bft) O-SO 112 -0,7 C 9,0 C 3,1 km/h (1 Bft)
01.02.2014 15:40 7,4 C 56 % 1007,0 hPa 0,0 l/m 1,3 km/h (1 Bft) W-NW 292 -0,8 C 8,7 C 3,4 km/h (1 Bft)
01.02.2014 15:45 7,2 C 56 % 1007,1 hPa 0,0 l/m 1,8 km/h (1 Bft) SO 135 -1,0 C 8,6 C 0,0 km/h (0 Bft)
01.02.2014 15:50 6,9 C 58 % 1007,1 hPa 0,0 l/m 1,6 km/h (1 Bft) O-NO 67 -0,8 C 8,3 C 3,7 km/h (1 Bft)
01.02.2014 15:55 7,0 C 58 % 1007,1 hPa 0,0 l/m 1,4 km/h (1 Bft) O 90 -0,7 C 8,0 C 0,0 km/h (0 Bft)
01.02.2014 16:00 6,7 C 58 % 1007,1 hPa 0,0 l/m 1,6 km/h (1 Bft) NO 45 -1,0 C 7,8 C 2,7 km/h (1 Bft)
01.02.2014 16:05 6,8 C 58 % 1007,4 hPa 0,0 l/m 1,9 km/h (1 Bft) O-SO 112 -0,9 C 7,7 C 4,5 km/h (1 Bft)
01.02.2014 16:10 6,6 C 58 % 1007,4 hPa 0,0 l/m 3,1 km/h (1 Bft) NO 45 -1,1 C 7,5 C 6,1 km/h (2 Bft)
01.02.2014 16:15 6,4 C 58 % 1007,4 hPa 0,0 l/m 3,1 km/h (1 Bft) O-NO 67 -1,2 C 7,3 C 3,5 km/h (1 Bft)
01.02.2014 16:20 6,2 C 59 % 1007,4 hPa 0,0 l/m 4,3 km/h (1 Bft) O 90 -1,2 C 6,3 C 5,5 km/h (1 Bft)
01.02.2014 16:25 6,2 C 59 % 1007,5 hPa 0,0 l/m 4,8 km/h (1 Bft) S-SW 202 -1,2 C 5,8 C 4,8 km/h (1 Bft)
01.02.2014 16:30 5,3 C 60 % 1007,5 hPa 0,0 l/m 3,2 km/h (1 Bft) NO 45 -1,8 C 6,3 C 0,0 km/h (0 Bft)
01.02.2014 16:35 5,0 C 62 % 1007,5 hPa 0,0 l/m 1,0 km/h (0 Bft) O 90 -1,7 C 6,1 C 0,0 km/h (0 Bft)
01.02.2014 16:40 5,1 C 64 % 1007,5 hPa 0,0 l/m 0,6 km/h (0 Bft) O 90 -1,1 C 5,8 C 2,9 km/h (1 Bft)
01.02.2014 16:45 5,3 C 63 % 1008,0 hPa 0,0 l/m 2,1 km/h (1 Bft) O 90 -1,2 C 5,7 C 4,7 km/h (1 Bft)
01.02.2014 16:50 5,2 C 64 % 1008,0 hPa 0,0 l/m 3,7 km/h (1 Bft) O-NO 67 -1,0 C 5,1 C 3,7 km/h (1 Bft)
01.02.2014 16:55 5,1 C 64 % 1008,0 hPa 0,0 l/m 3,2 km/h (1 Bft) O-SO 112 -1,1 C 5,2 C 0,0 km/h (0 Bft)
01.02.2014 17:00 4,9 C 65 % 1008,0 hPa 0,0 l/m 2,9 km/h (1 Bft) O-SO 112 -1,1 C 5,0 C 3,4 km/h (1 Bft)
01.02.2014 17:05 4,3 C 66 % 1008,3 hPa 0,0 l/m 2,4 km/h (1 Bft) O-SO 112 -1,5 C 5,0 C 1,9 km/h (1 Bft)
01.02.2014 17:10 4,1 C 67 % 1008,3 hPa 0,0 l/m 2,7 km/h (1 Bft) S 180 -1,5 C 4,9 C 7,1 km/h (2 Bft)
01.02.2014 17:15 4,1 C 68 % 1008,3 hPa 0,0 l/m 2,3 km/h (1 Bft) S 180 -1,3 C 5,1 C 0,0 km/h (0 Bft)
01.02.2014 17:20 3,9 C 68 % 1008,3 hPa 0,0 l/m 0,8 km/h (0 Bft) S 180 -1,5 C 5,0 C 0,0 km/h (0 Bft)
01.02.2014 17:25 4,1 C 69 % 1008,6 hPa 0,0 l/m 1,3 km/h (1 Bft) S-SO 157 -1,1 C 5,0 C 4,5 km/h (1 Bft)
01.02.2014 17:30 4,1 C 69 % 1008,6 hPa 0,0 l/m 2,1 km/h (1 Bft) S 180 -1,1 C 5,1 C 0,0 km/h (0 Bft)
01.02.2014 17:35 4,0 C 69 % 1008,6 hPa 0,0 l/m 1,4 km/h (1 Bft) S-SO 157 -1,2 C 5,1 C 2,9 km/h (1 Bft)
01.02.2014 17:40 4,1 C 69 % 1008,6 hPa 0,0 l/m 2,3 km/h (1 Bft) S-SO 157 -1,1 C 5,1 C 6,9 km/h (2 Bft)
01.02.2014 17:45 3,9 C 70 % 1008,4 hPa 0,0 l/m 4,3 km/h (1 Bft) S 180 -1,1 C 4,4 C 7,1 km/h (2 Bft)
01.02.2014 17:50 4,3 C 68 % 1008,4 hPa 0,0 l/m 6,8 km/h (2 Bft) S 180 -1,1 C 3,0 C 4,8 km/h (1 Bft)
01.02.2014 17:55 3,9 C 68 % 1008,4 hPa 0,0 l/m 7,1 km/h (2 Bft) S-SW 202 -1,5 C 2,4 C 6,1 km/h (2 Bft)
01.02.2014 18:00 3,6 C 69 % 1008,4 hPa 0,0 l/m 6,3 km/h (2 Bft) S 180 -1,5 C 2,9 C 6,9 km/h (2 Bft)
01.02.2014 18:05 3,5 C 70 % 1008,8 hPa 0,0 l/m 6,0 km/h (2 Bft) S-SO 157 -1,4 C 3,0 C 5,8 km/h (2 Bft)
01.02.2014 18:10 3,3 C 70 % 1008,8 hPa 0,0 l/m 3,2 km/h (1 Bft) SO 135 -1,6 C 4,1 C 0,0 km/h (0 Bft)
01.02.2014 18:15 3,5 C 70 % 1008,8 hPa 0,0 l/m 1,9 km/h (1 Bft) W 270 -1,4 C 4,2 C 3,1 km/h (1 Bft)
01.02.2014 18:20 3,6 C 70 % 1008,8 hPa 0,0 l/m 2,1 km/h (1 Bft) S-SW 202 -1,3 C 4,2 C 2,1 km/h (1 Bft)
01.02.2014 18:25 3,6 C 70 % 1009,1 hPa 0,0 l/m 1,6 km/h (1 Bft) O-SO 112 -1,3 C 4,2 C 0,0 km/h (0 Bft)
01.02.2014 18:30 3,3 C 70 % 1009,1 hPa 0,0 l/m 0,3 km/h (0 Bft) N-NO 22 -1,6 C 4,2 C 0,0 km/h (0 Bft)
01.02.2014 18:35 3,0 C 70 % 1009,1 hPa 0,0 l/m 0,3 km/h (0 Bft) N-NO 22 -1,9 C 4,0 C 2,3 km/h (1 Bft)
01.02.2014 18:40 3,6 C 70 % 1009,1 hPa 0,0 l/m 1,3 km/h (1 Bft) O-NO 67 -1,3 C 4,0 C 0,0 km/h (0 Bft)
01.02.2014 18:45 3,5 C 70 % 1009,4 hPa 0,0 l/m 1,4 km/h (1 Bft) O 90 -1,4 C 4,0 C 3,1 km/h (1 Bft)
01.02.2014 18:50 3,6 C 69 % 1009,4 hPa 0,0 l/m 1,1 km/h (1 Bft) O 90 -1,5 C 3,9 C 3,2 km/h (1 Bft)
01.02.2014 18:55 3,7 C 68 % 1009,4 hPa 0,0 l/m 2,4 km/h (1 Bft) O-SO 112 -1,6 C 4,0 C 4,2 km/h (1 Bft)
01.02.2014 19:00 3,8 C 65 % 1009,4 hPa 0,0 l/m 4,5 km/h (1 Bft) S-SO 157 -2,2 C 3,4 C 9,0 km/h (2 Bft)
01.02.2014 19:05 3,8 C 63 % 1009,1 hPa 0,0 l/m 5,0 km/h (1 Bft) O-SO 112 -2,6 C 3,2 C 3,7 km/h (1 Bft)
01.02.2014 19:10 3,8 C 62 % 1009,1 hPa 0,0 l/m 5,1 km/h (1 Bft) O-SO 112 -2,8 C 3,2 C 7,4 km/h (2 Bft)
01.02.2014 19:15 3,7 C 61 % 1009,1 hPa 0,0 l/m 4,3 km/h (1 Bft) N-NO 22 -3,1 C 3,6 C 3,7 km/h (1 Bft)
01.02.2014 19:20 3,5 C 62 % 1009,1 hPa 0,0 l/m 3,1 km/h (1 Bft) S-SO 157 -3,1 C 4,1 C 4,3 km/h (1 Bft)
01.02.2014 19:25 3,3 C 63 % 1009,2 hPa 0,0 l/m 1,8 km/h (1 Bft) S-SO 157 -3,1 C 4,2 C 0,0 km/h (0 Bft)
01.02.2014 19:30 3,2 C 63 % 1009,2 hPa 0,0 l/m 1,0 km/h (0 Bft) O-SO 112 -3,1 C 4,1 C 3,7 km/h (1 Bft)
01.02.2014 19:35 3,3 C 63 % 1009,2 hPa 0,0 l/m 1,1 km/h (1 Bft) S 180 -3,1 C 4,0 C 6,3 km/h (2 Bft)
01.02.2014 19:40 3,2 C 63 % 1009,2 hPa 0,0 l/m 2,3 km/h (1 Bft) O 90 -3,1 C 4,0 C 2,4 km/h (1 Bft)
01.02.2014 19:45 3,4 C 62 % 1009,4 hPa 0,0 l/m 3,2 km/h (1 Bft) O 90 -3,2 C 3,6 C 5,8 km/h (2 Bft)
01.02.2014 19:50 3,2 C 62 % 1009,4 hPa 0,0 l/m 4,7 km/h (1 Bft) O-NO 67 -3,4 C 2,8 C 6,6 km/h (2 Bft)
01.02.2014 19:55 3,0 C 62 % 1009,4 hPa 0,0 l/m 4,5 km/h (1 Bft) O 90 -3,6 C 2,6 C 4,8 km/h (1 Bft)
01.02.2014 20:00 3,0 C 62 % 1009,4 hPa 0,0 l/m 3,4 km/h (1 Bft) O-SO 112 -3,6 C 3,1 C 2,6 km/h (1 Bft)
01.02.2014 20:05 2,9 C 64 % 1009,2 hPa 0,0 l/m 2,4 km/h (1 Bft) O 90 -3,2 C 3,2 C 0,0 km/h (0 Bft)
01.02.2014 20:10 2,3 C 65 % 1009,2 hPa 0,0 l/m 0,6 km/h (0 Bft) O 90 -3,6 C 2,8 C 0,0 km/h (0 Bft)
01.02.2014 20:15 2,4 C 66 % 1009,2 hPa 0,0 l/m 0,2 km/h (0 Bft) O 90 -3,3 C 2,6 C 2,4 km/h (1 Bft)
01.02.2014 20:18 2,5 C 66 % 1009,2 hPa 0,0 l/m 1,6 km/h (1 Bft) NO 45 -3,2 C 2,5 C 3,2 km/h (1 Bft)
01.02.2014 20:20 2,5 C 66 % 1009,2 hPa 0,0 l/m 1,6 km/h (1 Bft) NO 45 -3,2 C 2,5 C 3,2 km/h (1 Bft)
01.02.2014 20:25 2,4 C 66 % 1009,4 hPa 0,0 l/m 2,1 km/h (1 Bft) NO 45 -3,3 C 2,4 C 0,0 km/h (0 Bft)
01.02.2014 20:30 2,4 C 66 % 1009,4 hPa 0,0 l/m 1,4 km/h (1 Bft) O 90 -3,3 C 2,3 C 2,1 km/h (1 Bft)
01.02.2014 20:35 2,6 C 66 % 1009,4 hPa 0,0 l/m 1,1 km/h (1 Bft) O-NO 67 -3,1 C 2,2 C 0,0 km/h (0 Bft)
01.02.2014 20:40 1,8 C 68 % 1009,4 hPa 0,0 l/m 0,8 km/h (0 Bft) W-NW 292 -3,5 C 2,0 C 0,0 km/h (0 Bft)
01.02.2014 20:45 1,6 C 69 % 1009,6 hPa 0,0 l/m 0,5 km/h (0 Bft) N-NO 22 -3,5 C 1,8 C 2,3 km/h (1 Bft)
01.02.2014 20:50 1,9 C 69 % 1009,6 hPa 0,0 l/m 0,6 km/h (0 Bft) O-NO 67 -3,2 C 1,5 C 0,0 km/h (0 Bft)
01.02.2014 20:55 1,5 C 69 % 1009,6 hPa 0,0 l/m 0,5 km/h (0 Bft) O-NO 67 -3,6 C 1,3 C 0,0 km/h (0 Bft)
01.02.2014 21:00 1,8 C 71 % 1009,6 hPa 0,0 l/m 1,4 km/h (1 Bft) O 90 -2,9 C 1,1 C 5,0 km/h (1 Bft)
01.02.2014 21:05 1,9 C 70 % 1009,6 hPa 0,0 l/m 2,9 km/h (1 Bft) O-NO 67 -3,0 C 1,1 C 1,6 km/h (1 Bft)
01.02.2014 21:10 2,0 C 69 % 1009,6 hPa 0,0 l/m 1,9 km/h (1 Bft) O 90 -3,1 C 1,4 C 3,4 km/h (1 Bft)
01.02.2014 21:15 2,0 C 69 % 1009,6 hPa 0,0 l/m 0,6 km/h (0 Bft) O 90 -3,1 C 1,4 C 0,0 km/h (0 Bft)
01.02.2014 21:20 2,1 C 69 % 1009,6 hPa 0,0 l/m 2,9 km/h (1 Bft) O-NO 67 -3,0 C 1,2 C 5,8 km/h (2 Bft)
01.02.2014 21:25 2,0 C 69 % 1009,4 hPa 0,0 l/m 3,7 km/h (1 Bft) O 90 -3,1 C 1,0 C 3,4 km/h (1 Bft)
01.02.2014 21:30 1,5 C 69 % 1009,4 hPa 0,0 l/m 3,2 km/h (1 Bft) O-SO 112 -3,6 C 1,1 C 0,0 km/h (0 Bft)
01.02.2014 21:35 0,7 C 70 % 1009,4 hPa 0,0 l/m 1,8 km/h (1 Bft) N-NO 22 -4,1 C 1,2 C 0,0 km/h (0 Bft)
01.02.2014 21:40 0,7 C 72 % 1009,4 hPa 0,0 l/m 0,8 km/h (0 Bft) O 90 -3,8 C 0,4 C 0,0 km/h (0 Bft)
01.02.2014 21:45 0,2 C 72 % 1009,4 hPa 0,0 l/m 0,8 km/h (0 Bft) NO 45 -4,2 C 0,1 C 2,6 km/h (1 Bft)
01.02.2014 21:50 0,5 C 73 % 1009,4 hPa 0,0 l/m 1,1 km/h (1 Bft) O-NO 67 -3,8 C -0,2 C 0,0 km/h (0 Bft)
01.02.2014 21:55 -0,2 C 73 % 1009,4 hPa 0,0 l/m 1,3 km/h (1 Bft) W-SW 247 -4,4 C -0,5 C 1,8 km/h (1 Bft)
01.02.2014 22:00 -0,1 C 75 % 1009,4 hPa 0,0 l/m 1,0 km/h (0 Bft) O-SO 112 -4,0 C -0,9 C 1,6 km/h (1 Bft)
01.02.2014 22:05 -0,5 C 75 % 1009,2 hPa 0,0 l/m 1,8 km/h (1 Bft) O-SO 112 -4,4 C -1,0 C 3,4 km/h (1 Bft)
01.02.2014 22:10 0,0 C 76 % 1009,2 hPa 0,0 l/m 2,7 km/h (1 Bft) NW 315 -3,7 C -1,3 C 0,0 km/h (0 Bft)
01.02.2014 22:15 -0,1 C 76 % 1009,2 hPa 0,0 l/m 3,9 km/h (1 Bft) NO 45 -3,8 C -2,2 C 7,1 km/h (2 Bft)
01.02.2014 22:20 -0,3 C 77 % 1009,2 hPa 0,0 l/m 4,0 km/h (1 Bft) O 90 -3,8 C -2,2 C 5,6 km/h (1 Bft)
01.02.2014 22:25 -0,2 C 77 % 1009,1 hPa 0,0 l/m 4,3 km/h (1 Bft) NO 45 -3,7 C -2,4 C 4,8 km/h (1 Bft)
01.02.2014 22:30 -0,4 C 77 % 1009,1 hPa 0,0 l/m 3,2 km/h (1 Bft) O-SO 112 -3,9 C -1,9 C 0,0 km/h (0 Bft)
01.02.2014 22:35 -1,1 C 76 % 1009,1 hPa 0,0 l/m 1,9 km/h (1 Bft) NO 45 -4,8 C -1,5 C 0,0 km/h (0 Bft)
01.02.2014 22:40 -1,0 C 77 % 1009,1 hPa 0,0 l/m 0,0 km/h (0 Bft) O-SO 112 -4,5 C -1,9 C 0,0 km/h (0 Bft)
01.02.2014 22:45 -1,5 C 77 % 1008,9 hPa 0,0 l/m 0,0 km/h (0 Bft) SO 135 -5,0 C -2,2 C 0,0 km/h (0 Bft)
01.02.2014 22:50 -1,4 C 78 % 1008,9 hPa 0,0 l/m 0,3 km/h (0 Bft) NO 45 -4,7 C -2,4 C 0,0 km/h (0 Bft)
01.02.2014 22:55 -1,5 C 79 % 1008,9 hPa 0,0 l/m 0,5 km/h (0 Bft) NO 45 -4,7 C -2,3 C 0,0 km/h (0 Bft)
01.02.2014 23:00 -0,9 C 79 % 1008,9 hPa 0,0 l/m 0,8 km/h (0 Bft) O 90 -4,1 C -2,4 C 4,2 km/h (1 Bft)
01.02.2014 23:05 -1,0 C 79 % 1008,8 hPa 0,0 l/m 1,3 km/h (1 Bft) O-SO 112 -4,2 C -2,4 C 0,0 km/h (0 Bft)
01.02.2014 23:10 -1,7 C 79 % 1008,8 hPa 0,0 l/m 1,0 km/h (0 Bft) O-NO 67 -4,8 C -2,6 C 3,9 km/h (1 Bft)
01.02.2014 23:15 -1,2 C 80 % 1008,8 hPa 0,0 l/m 2,4 km/h (1 Bft) O 90 -4,2 C -2,7 C 7,1 km/h (2 Bft)
01.02.2014 23:20 -0,9 C 80 % 1008,8 hPa 0,0 l/m 5,8 km/h (2 Bft) NO 45 -3,9 C -4,0 C 6,0 km/h (2 Bft)
01.02.2014 23:25 -1,0 C 80 % 1008,8 hPa 0,0 l/m 4,3 km/h (1 Bft) SO 135 -4,0 C -3,2 C 0,0 km/h (0 Bft)
01.02.2014 23:30 -2,1 C 80 % 1008,8 hPa 0,0 l/m 0,8 km/h (0 Bft) W-SW 247 -5,1 C -2,1 C 0,0 km/h (0 Bft)
01.02.2014 23:35 -2,2 C 80 % 1008,8 hPa 0,0 l/m 0,2 km/h (0 Bft) W-SW 247 -5,2 C -2,4 C 0,0 km/h (0 Bft)
01.02.2014 23:40 -1,4 C 82 % 1008,8 hPa 0,0 l/m 0,3 km/h (0 Bft) NO 45 -4,1 C -2,6 C 0,0 km/h (0 Bft)
01.02.2014 23:45 -1,3 C 82 % 1008,7 hPa 0,0 l/m 0,8 km/h (0 Bft) NW 315 -4,0 C -2,5 C 2,6 km/h (1 Bft)
01.02.2014 23:50 -0,9 C 82 % 1008,7 hPa 0,0 l/m 2,4 km/h (1 Bft) O-NO 67 -3,6 C -2,2 C 4,7 km/h (1 Bft)
01.02.2014 23:55 -0,5 C 82 % 1008,7 hPa 0,0 l/m 4,5 km/h (1 Bft) O 90 -3,2 C -3,2 C 6,4 km/h (2 Bft)
_ Min-Zeit 07:35 14:40 10:40 - 22:45 - - 07:35 07:55 23:40
Minimum _ -4,9 C 48 % 1005,6 hPa - 0,0 km/h (0 Bft) - - -6,3 C -4,4 C 0,0 km/h (0 Bft)
_ Max-Zeit 14:45 11:15 00:40 23:55 17:55 - - 13:45 13:20 14:40
Maximum _ 10,5 C 95 % 1009,8 hPa 0,0 l/m 7,1 km/h
S-SW (2 Bft)
- - 4,3 C 17,8 C 11,9 km/h
S (2 Bft)
Durchschnitt _ 0,5 C 80 % 1007,8 hPa #0,0 l/m 1,6 km/h (1 Bft) O-SO - -2,7 C 2,2 C 2,0 km/h (1 Bft)